Ord, NE

8:13 AM CST on February 25, 2017 (GMT -0600)
Sharp

Weather History for KODX - February, 2014

Change the Weather History Date:

Friday, February 7, 2014

  Actual Average Record
Temperature  
Mean Temperature 0 °F 26 °F  
Max Temperature 14 °F 39 °F 68 °F (1999)
Min Temperature -14 °F 14 °F -16 °F (2004)
Degree Days  
Heating Degree Days 65 39  
Month to date heating degree days 412 273  
Since 1 July heating degree days 4249  
Cooling Degree Days 0 0  
Month to date cooling degree days 0 0  
Year to date cooling degree days 0 0  
Moisture  
Dew Point -1 °F    
Average Humidity 74    
Maximum Humidity 87    
Minimum Humidity 61    
Precipitation  
Precipitation T in 0.01 in 0.23 in (1997)
Month to date precipitation 0.09 0.12  
Year to date precipitation 0.15 0.49  
Sea Level Pressure  
Sea Level Pressure 30.21 in    
Wind  
Wind Speed 8 mph (South)    
Max Wind Speed 17 mph    
Max Gust Speed 21 mph    
Visibility 10 miles    
Events      
T = Trace of Precipitation, MM = Missing Value Source: NWS Daily Summary

Daily Weather History Graph

Daily Weather History Graph

Search for Another Location

Airport or City:

Trip Planner

Search our weather history database for the weather conditions in past years. The results will help you decide how hot, cold, wet, or windy it might be!

Date:

Astronomy

Feb. 07, 2014 Rise Set
Actual Time 7:41 AM CST 5:59 PM CST
Civil Twilight 7:12 AM CST 6:28 PM CST
Nautical Twilight 6:39 AM CST 7:01 PM CST
Astronomical Twilight 6:06 AM CST 7:33 PM CST
Moon 12:10 PM CST (2/7) 1:59 AM CST (2/7)
Length of Visible Light 11h 16m
Length of Day
10h 18m
First Quarter, 59% of the Moon is Illuminated
Feb 7
First Quarter
Feb 14
Full
Feb 22
Last Quarter
Mar 1
New
Mar 8
First Quarter

Hourly Weather History & Observations

Time (CST) Temp. Windchill Dew Point Humidity Pressure Visibility Wind Dir Wind Speed Gust Speed Precip Events Conditions
12:53 AM -2.0 °F -10.1 °F -7.1 °F 79% 30.40 in 10.0 mi South 3.5 mph - N/A   Clear
1:53 AM -6.0 °F - -11.0 °F 79% 30.38 in 10.0 mi Calm Calm - N/A   Clear
2:53 AM -8.0 °F - -11.9 °F 83% 30.36 in 10.0 mi Calm Calm - N/A   Clear
3:53 AM -9.0 °F - -13.0 °F 83% 30.35 in 10.0 mi Calm Calm - N/A   Clear
4:53 AM -9.0 °F - -14.1 °F 79% 30.35 in 10.0 mi Calm Calm - N/A   Scattered Clouds
5:53 AM -9.0 °F - -14.1 °F 79% 30.34 in 7.0 mi Calm Calm - N/A   Clear
6:53 AM -9.0 °F - -13.0 °F 83% 30.33 in 10.0 mi Calm Calm - N/A   Clear
7:53 AM -13.0 °F - -18.9 °F 75% 30.34 in 10.0 mi Calm Calm - N/A   Clear
8:53 AM -2.0 °F - -8.0 °F 76% 30.32 in 8.0 mi Calm Calm - N/A   Clear
9:53 AM 6.1 °F -12.2 °F -0.0 °F 76% 30.31 in 10.0 mi SSW 16.1 mph - N/A   Mostly Cloudy
10:53 AM 10.0 °F -3.7 °F 1.9 °F 70% 30.30 in 10.0 mi South 10.4 mph - N/A   Clear
11:53 AM 12.0 °F -4.5 °F 1.9 °F 64% 30.29 in 10.0 mi SSW 16.1 mph - N/A   Clear
12:53 PM 12.9 °F -2.8 °F 3.0 °F 65% 30.25 in 10.0 mi SSW 15.0 mph - N/A   Scattered Clouds
1:03 PM 12.9 °F -2.8 °F 3.9 °F 67% 30.09 in 10.0 mi SW 15.0 mph - N/A   Mostly Cloudy
1:53 PM 14.0 °F -2.5 °F 5.0 °F 67% 30.21 in 10.0 mi SSW 17.3 mph - N/A   Overcast
2:53 PM 14.0 °F -0.8 °F 5.0 °F 67% 30.19 in 10.0 mi South 13.8 mph - N/A   Overcast
3:53 PM 14.0 °F -0.8 °F 6.1 °F 71% 30.17 in 10.0 mi South 13.8 mph - N/A   Overcast
4:53 PM 12.9 °F -1.6 °F 6.1 °F 74% 30.16 in 10.0 mi South 12.7 mph - N/A   Overcast
5:53 PM 12.0 °F -2.0 °F 6.1 °F 77% 30.17 in 8.0 mi South 11.5 mph - 0.00 in   Overcast
6:53 PM 12.0 °F -2.7 °F 6.1 °F 77% 30.18 in 9.0 mi South 12.7 mph - N/A   Overcast
7:53 PM 10.9 °F -4.7 °F 6.1 °F 81% 30.18 in 9.0 mi South 13.8 mph - N/A   Overcast
8:53 PM 10.9 °F -4.1 °F 6.1 °F 81% 30.15 in 8.0 mi South 12.7 mph - N/A   Overcast
9:36 PM 10.9 °F -3.4 °F 6.1 °F 81% 29.99 in 8.0 mi South 11.5 mph - N/A   Overcast
9:53 PM 10.9 °F -3.4 °F 6.1 °F 81% 30.12 in 10.0 mi South 11.5 mph - N/A   Overcast
10:53 PM 9.0 °F 0.6 °F 5.0 °F 84% 30.10 in 10.0 mi SSE 4.6 mph - N/A   Mostly Cloudy
11:03 PM 9.0 °F -4.2 °F 5.0 °F 84% 29.95 in 10.0 mi SSE 9.2 mph - N/A   Scattered Clouds
11:38 PM 10.0 °F -3.7 °F 6.1 °F 84% 29.95 in 9.0 mi South 10.4 mph - N/A   Mostly Cloudy
11:53 PM 10.9 °F -4.1 °F 7.0 °F 84% 30.07 in 9.0 mi South 12.7 mph - N/A   Overcast